GW5579 Weather Reports


time (UTC)temp
C
wind
direction
speed
KPH
gust
KPH
rain 1hr
cm
rain 24hr
cm
rain mn
cm
humidity
%
barometer
mb
20260505060008 13 180 0.0 1.6 0.00 0.33 0.33 85 1013.2
20260505055504 13 81 3.2 3.2 0.00 0.33 0.33 86 1013.4
20260505055000 13 158 1.6 4.8 0.00 0.33 0.33 86 1013.3
20260505054458 13 90 1.6 3.2 0.00 0.33 0.33 89 1013.1
20260505053956 12 149 0.0 0.0 0.00 0.33 0.33 95 1013.4
20260505053453 11 168 0.0 0.0 0.00 0.33 0.33 95 1013.3
20260505052949 11 175 0.0 0.0 0.00 0.33 0.33 95 1013.4
20260505052447 12 172 0.0 0.0 0.00 0.33 0.33 95 1013.4
20260505051944 12 173 0.0 0.0 0.00 0.33 0.33 95 1013.2
20260505051440 11 173 0.0 0.0 0.00 0.33 0.33 96 1013.3
20260505050939 11 176 0.0 1.6 0.00 0.33 0.33 96 1013.5
20260505050437 11 168 0.0 1.6 0.00 0.33 0.33 97 1013.3
20260505041404 11 149 0.0 1.6 0.00 0.33 0.33 97 1013.0
20260505040901 11 160 0.0 1.6 0.18 0.33 0.33 97 1012.9
20260505040359 11 170 0.0 1.6 0.18 0.33 0.33 98 1013.1
20260505035855 11 148 0.0 1.6 0.00 0.30 0.30 97 1013.1
20260505035351 11 161 0.0 0.0 0.00 0.30 0.30 97 1013.4
20260505034849 11 160 0.0 0.0 0.00 0.30 0.30 97 1013.4
20260505034345 11 160 0.0 0.0 0.00 0.30 0.30 97 1013.4
20260505033842 11 160 0.0 0.0 0.00 0.30 0.30 97 1013.4
20260505033339 11 160 0.0 1.6 0.00 0.30 0.30 97 1013.3
20260505032838 11 127 1.6 1.6 0.00 0.30 0.30 97 1013.1
20260505032334 11 180 0.0 0.0 0.13 0.30 0.30 97 1013.2
20260505031831 11 180 0.0 1.6 0.13 0.30 0.30 97 1013.2
20260505031327 11 146 0.0 1.6 0.18 0.28 0.28 97 1012.8
20260505030825 11 150 0.0 0.0 0.18 0.28 0.28 97 1013.1
20260505030321 11 150 0.0 0.0 0.00 0.25 0.25 97 1013.1
20260505025816 11 149 0.0 0.0 0.00 0.25 0.25 97 1013.1
20260505025314 11 147 0.0 0.0 0.00 0.25 0.25 97 1013.0
20260505024812 11 169 0.0 0.0 0.00 0.25 0.25 97 1013.4
20260505024309 11 182 0.0 1.6 0.00 0.25 0.25 97 1013.2
20260505023807 11 162 0.0 0.0 0.00 0.25 0.25 96 1013.1
20260505023303 11 172 0.0 1.6 0.00 0.25 0.25 96 1013.1
20260505022801 11 184 0.0 1.6 0.13 0.25 0.25 96 1013.0
20260505022258 11 165 0.0 0.0 0.13 0.25 0.25 96 1012.7
20260505021754 11 164 0.0 0.0 0.00 0.23 0.23 96 1012.8
20260505021251 11 176 0.0 1.6 0.00 0.23 0.23 96 1012.7
20260505020747 11 152 1.6 3.2 0.00 0.23 0.23 96 1012.8
20260505020242 11 164 0.0 0.0 0.00 0.23 0.23 96 1012.9
20260505015740 11 178 0.0 3.2 0.18 0.23 0.23 95 1013.0
20260505015237 11 192 1.6 4.8 0.18 0.23 0.23 95 1013.0
20260505014734 11 199 3.2 4.8 0.00 0.20 0.20 95 1013.0
20260505014231 11 204 3.2 3.2 0.00 0.20 0.20 95 1012.6
20260505013728 11 136 3.2 3.2 0.00 0.20 0.20 95 1012.4
20260505013225 11 13 6.4 9.7 0.30 0.20 0.20 94 1012.5
20260505012723 11 151 0.0 1.6 0.48 0.20 0.20 94 1012.7
20260505012220 11 149 0.0 1.6 0.30 0.15 0.15 93 1012.9
20260505011716 11 134 1.6 1.6 0.18 0.10 0.10 92 1013.0
20260505011213 11 179 0.0 1.6 0.43 0.08 0.08 91 1013.2
20260505010708 11 188 1.6 1.6 0.43 0.08 0.08 89 1012.9
20260505010205 11 121 1.6 3.2 0.00 0.00 0.00 87 1013.0
20260505005701 11 174 0.0 0.0 0.00 0.00 0.00 86 1013.0
20260505005159 11 167 0.0 0.0 0.00 0.00 0.00 86 1013.0
20260505004656 11 153 0.0 0.0 0.00 0.00 0.00 85 1013.0
20260505004152 12 151 0.0 1.6 0.00 0.00 0.00 84 1012.9
20260505003649 12 161 0.0 0.0 0.00 0.00 0.00 84 1013.0
20260505003147 12 175 0.0 0.0 0.00 0.00 0.00 84 1013.3
20260505002643 12 176 0.0 0.0 0.00 0.00 0.00 83 1013.1
20260505002141 12 168 0.0 0.0 0.00 0.00 0.00 84 1013.0
20260505001638 12 168 0.0 0.0 0.00 0.00 0.00 84 1012.8
20260505001135 12 168 0.0 0.0 0.00 0.00 0.00 84 1013.1
20260505000632 12 167 0.0 0.0 0.00 0.00 0.00 83 1012.8
20260505000131 12 161 0.0 0.0 0.00 0.00 0.00 83 1012.9
20260504235626 12 161 0.0 0.0 0.00 0.00 0.00 82 1012.9
20260504235123 12 161 0.0 0.0 0.00 0.00 0.00 82 1013.0
20260504234620 12 161 0.0 0.0 0.00 0.00 0.00 83 1013.1
20260504234118 12 160 0.0 0.0 0.00 0.00 0.00 83 1013.0
20260504233613 12 161 0.0 0.0 0.00 0.00 0.00 83 1013.2
20260504233109 12 161 0.0 0.0 0.00 0.00 0.00 82 1012.9
20260504232607 12 161 0.0 0.0 0.00 0.00 0.00 82 1013.2
20260504232104 12 161 0.0 0.0 0.00 0.00 0.00 82 1013.1
20260504231600 12 161 0.0 0.0 0.00 0.00 0.00 82 1013.1
20260504231056 12 161 0.0 0.0 0.00 0.00 0.00 82 1013.1
20260504230553 12 161 0.0 0.0 0.00 0.00 0.00 81 1013.0
20260504230052 12 161 0.0 0.0 0.00 0.00 0.00 80 1013.0
20260504225549 12 161 0.0 0.0 0.00 0.00 0.00 80 1013.2
20260504225046 13 161 0.0 0.0 0.00 0.00 0.00 79 1013.2
20260504224542 13 161 0.0 0.0 0.00 0.00 0.00 79 1013.0
20260504224040 13 161 0.0 0.0 0.00 0.00 0.00 79 1013.2
20260504223537 13 161 0.0 0.0 0.00 0.00 0.00 79 1013.2
20260504223032 13 161 0.0 0.0 0.00 0.00 0.00 79 1013.2
20260504222529 13 161 0.0 0.0 0.00 0.00 0.00 80 1013.3
20260504222027 13 160 0.0 0.0 0.00 0.00 0.00 80 1013.2
20260504221524 13 161 0.0 0.0 0.00 0.00 0.00 79 1013.3
20260504221020 13 161 0.0 0.0 0.00 0.00 0.00 79 1013.3
20260504220517 13 160 0.0 0.0 0.00 0.00 0.00 79 1013.4
20260504220014 13 159 0.0 0.0 0.00 0.00 0.00 78 1013.3
20260504215510 13 157 0.0 1.6 0.00 0.00 0.00 79 1013.4
20260504215008 13 167 0.0 0.0 0.00 0.00 0.00 79 1013.4
20260504214504 13 165 0.0 1.6 0.00 0.00 0.00 79 1013.2
20260504214000 13 156 0.0 1.6 0.00 0.00 0.00 79 1013.2
20260504213456 13 159 0.0 0.0 0.00 0.00 0.00 80 1013.2
20260504212954 13 156 0.0 1.6 0.00 0.00 0.00 79 1013.2
20260504212450 13 159 0.0 0.0 0.00 0.00 0.00 79 1013.3
20260504211947 13 159 0.0 0.0 0.00 0.00 0.00 78 1013.2
20260504211444 14 159 0.0 0.0 0.00 0.00 0.00 78 1013.4
20260504210942 14 159 0.0 0.0 0.00 0.00 0.00 77 1013.2
20260504210438 14 159 0.0 0.0 0.00 0.00 0.00 77 1013.3
20260504205935 15 159 0.0 0.0 0.00 0.00 0.00 76 1013.2
20260504205433 15 159 0.0 1.6 0.00 0.00 0.00 76 1013.3
20260504204931 15 115 3.2 4.8 0.00 0.00 0.00 76 1013.4
20260504204429 15 163 0.0 1.6 0.00 0.00 0.00 75 1013.2
20260504203928 15 163 0.0 1.6 0.00 0.00 0.00 75 1013.2
20260504203425 15 64 3.2 4.8 0.00 0.00 0.00 74 1013.3
20260504202921 15 345 3.2 4.8 0.00 0.00 0.00 74 1013.1
20260504202417 15 108 3.2 6.4 0.00 0.00 0.00 74 1013.2
20260504201914 15 156 1.6 4.8 0.00 0.00 0.00 74 1013.3
20260504201412 15 161 0.0 9.7 0.00 0.00 0.00 74 1013.1
20260504200909 15 26 6.4 9.7 0.00 0.00 0.00 73 1013.1
20260504200405 16 49 3.2 6.4 0.00 0.00 0.00 73 1013.0
20260504195902 16 49 6.4 9.7 0.00 0.00 0.00 72 1012.8
20260504195358 16 57 3.2 4.8 0.00 0.00 0.00 72 1013.0
20260504194855 16 122 3.2 9.7 0.00 0.00 0.00 71 1013.0
20260504194350 16 93 8.0 11.3 0.00 0.00 0.00 71 1012.8
20260504193847 16 54 3.2 6.4 0.00 0.00 0.00 71 1012.6
20260504193344 16 44 3.2 4.8 0.00 0.00 0.00 70 1012.5
20260504192843 17 356 6.4 16.1 0.00 0.00 0.00 70 1012.7
20260504192340 17 20 12.9 16.1 0.00 0.00 0.00 69 1012.6
20260504191838 17 45 6.4 12.9 0.00 0.00 0.00 68 1012.6
20260504191336 17 94 3.2 3.2 0.00 0.00 0.00 68 1012.6
20260504190831 17 11 8.0 12.9 0.00 0.00 0.00 68 1012.3
20260504190327 17 275 3.2 6.4 0.00 0.00 0.00 68 1012.5
20260504185824 17 343 6.4 9.7 0.00 0.00 0.00 67 1012.4
20260504185321 17 65 3.2 11.3 0.00 0.00 0.00 67 1012.3
20260504184817 18 279 3.2 11.3 0.00 0.00 0.00 66 1012.3
20260504184313 18 10 8.0 14.5 0.00 0.00 0.00 66 1012.1
20260504183809 18 34 6.4 17.7 0.00 0.00 0.00 65 1012.1
20260504183306 18 11 6.4 12.9 0.00 0.00 0.00 64 1011.9
20260504182804 19 29 11.3 17.7 0.00 0.00 0.00 63 1011.7
20260504182301 20 20 19.3 22.5 0.00 0.00 0.00 61 1012.0
20260504181759 20 283 9.7 22.5 0.00 0.00 0.00 58 1011.5
20260504181255 21 334 9.7 14.5 0.00 0.00 0.00 54 1011.7
20260504180755 21 343 12.9 20.9 0.00 0.00 0.00 53 1011.4
20260504180253 21 62 4.8 6.4 0.00 0.00 0.00 49 1011.3
20260504175750 21 13 11.3 14.5 0.00 0.00 0.00 48 1011.2
20260504175247 21 115 3.2 4.8 0.00 0.00 0.00 38 1011.2
20260504174745 22 182 0.0 1.6 0.00 0.00 0.00 37 1011.2
20260504174243 22 131 1.6 4.8 0.00 0.00 0.00 37 1011.0
20260504173739 22 97 3.2 3.2 0.00 0.00 0.00 36 1010.8
20260504173236 22 205 0.0 1.6 0.00 0.00 0.00 34 1010.8
20260504172733 23 171 0.0 1.6 0.00 0.00 0.00 34 1010.7
20260504172229 23 197 3.2 4.8 0.00 0.00 0.00 33 1010.7
20260504171725 23 214 4.8 6.4 0.00 0.00 0.00 32 1010.6
20260504171222 23 212 3.2 4.8 0.00 0.00 0.00 32 1010.7
20260504170719 24 194 3.2 12.9 0.00 0.00 0.00 32 1010.6
20260504170217 24 196 3.2 9.7 0.00 0.00 0.00 31 1010.6
20260504160135 25 187 6.4 9.7 0.00 0.00 0.00 29 1010.5
20260504151102 25 224 11.3 12.9 0.00 0.00 0.00 27 1010.4
20260504150600 26 233 9.7 16.1 0.00 0.00 0.00 26 1010.6
20260504141026 26 289 1.6 14.5 0.00 0.00 0.00 25 1010.5
20260504140522 27 187 3.2 11.3 0.00 0.00 0.00 26 1010.5
20260504130447 27 189 9.7 14.5 0.00 0.00 0.00 27 1010.9
20260504110334 26 194 1.6 16.1 0.00 0.00 0.00 24 1011.8
20260504100251 25 217 14.5 20.9 0.00 0.00 0.00 23 1012.5
20260504081645 23 211 8.0 12.9 0.00 0.00 0.00 37 1013.1
20260504081141 23 173 6.4 12.9 0.00 0.00 0.00 37 1013.2
20260504080637 23 190 8.0 14.5 0.00 0.00 0.00 37 1013.2
20260504080134 23 195 14.5 16.1 0.00 0.00 0.00 36 1013.0